Time,TemperatureF,DewpointF,PressureIn,WindDirection,WindDirectionDegrees,WindSpeedMPH,WindSpeedGustMPH,Humidity,HourlyPrecipIn,Conditions,Clouds,dailyrainin,SoftwareType,DateUTC
2013-01-30 00:04:00,41.0,40.5,29.33,NW,323,19.0,22.0,98,0.00,,,0.00,Wunderground v.1.15,2013-01-30 06:04:00,
2013-01-30 00:05:00,40.9,40.4,29.33,NW,321,19.0,22.0,98,0.00,,,0.00,Wunderground v.1.15,2013-01-30 06:05:00,
2013-01-30 00:10:00,40.8,40.3,29.31,NW,320,18.0,18.0,98,0.00,,,0.00,Wunderground v.1.15,2013-01-30 06:10:00,
2013-01-30 00:11:00,40.7,40.2,29.32,NNW,329,18.0,20.0,98,0.00,,,0.00,Wunderground v.1.15,2013-01-30 06:11:00,
2013-01-30 00:13:00,40.7,40.2,29.32,NW,314,18.0,20.0,98,0.00,,,0.00,Wunderground v.1.15,2013-01-30 06:13:00,
2013-01-30 00:14:00,40.7,40.2,29.31,NNW,327,18.0,20.0,98,0.00,,,0.00,Wunderground v.1.15,2013-01-30 06:14:00,
2013-01-30 00:18:00,40.6,40.1,29.31,NNW,328,17.0,21.0,98,0.00,,,0.01,Wunderground v.1.15,2013-01-30 06:18:00,
2013-01-30 00:19:00,40.6,40.1,29.31,NW,326,17.0,21.0,98,0.00,,,0.01,Wunderground v.1.15,2013-01-30 06:19:00,
2013-01-30 00:20:00,40.5,40.0,29.31,NW,320,17.0,19.0,98,0.00,,,0.01,Wunderground v.1.15,2013-01-30 06:20:00,
2013-01-30 00:22:00,40.5,40.0,29.31,NW,323,18.0,19.0,98,0.00,,,0.01,Wunderground v.1.15,2013-01-30 06:22:00,
2013-01-30 00:26:00,40.4,39.9,29.31,NW,325,17.0,19.0,98,0.00,,,0.01,Wunderground v.1.15,2013-01-30 06:26:00,
2013-01-30 00:28:00,40.3,39.8,29.31,NW,321,17.0,21.0,98,0.00,,,0.01,Wunderground v.1.15,2013-01-30 06:28:00,
2013-01-30 00:29:00,40.3,39.8,29.31,NW,313,17.0,21.0,98,0.05,,,0.01,Wunderground v.1.15,2013-01-30 06:29:00,
2013-01-30 00:31:00,40.2,39.7,29.33,NNW,338,17.0,22.0,98,0.05,,,0.02,Wunderground v.1.15,2013-01-30 06:31:00,
2013-01-30 00:33:00,40.2,39.7,29.33,NW,321,17.0,22.0,98,0.05,,,0.02,Wunderground v.1.15,2013-01-30 06:33:00,
2013-01-30 00:34:00,40.2,39.7,29.33,NW,304,17.0,22.0,98,0.05,,,0.02,Wunderground v.1.15,2013-01-30 06:34:00,
2013-01-30 00:35:00,40.1,39.6,29.32,NNW,331,17.0,22.0,98,0.05,,,0.02,Wunderground v.1.15,2013-01-30 06:35:00,
2013-01-30 00:37:00,40.0,39.5,29.32,NW,325,18.0,22.0,98,0.05,,,0.02,Wunderground v.1.15,2013-01-30 06:37:00,
2013-01-30 00:40:00,40.0,39.5,29.33,NW,319,17.0,17.0,98,0.05,,,0.02,Wunderground v.1.15,2013-01-30 06:40:00,
2013-01-30 00:41:00,40.0,39.5,29.33,NW,321,17.0,17.0,98,0.05,,,0.02,Wunderground v.1.15,2013-01-30 06:41:00,
2013-01-30 00:42:00,39.9,39.4,29.33,NW,323,17.0,18.0,98,0.05,,,0.02,Wunderground v.1.15,2013-01-30 06:42:00,
2013-01-30 00:47:00,39.7,39.2,29.33,NW,326,16.0,18.0,98,0.04,,,0.03,Wunderground v.1.15,2013-01-30 06:47:00,
2013-01-30 00:48:00,39.7,39.2,29.33,NNW,335,16.0,18.0,98,0.04,,,0.03,Wunderground v.1.15,2013-01-30 06:48:00,
2013-01-30 00:50:00,39.7,39.2,29.32,NNW,337,15.0,15.0,98,0.04,,,0.03,Wunderground v.1.15,2013-01-30 06:50:00,
2013-01-30 00:52:00,39.6,39.1,29.32,NNW,337,15.0,15.0,98,0.07,,,0.04,Wunderground v.1.15,2013-01-30 06:52:00,
2013-01-30 00:54:00,39.5,39.0,29.32,NNW,338,14.0,15.0,98,0.07,,,0.04,Wunderground v.1.15,2013-01-30 06:54:00,
2013-01-30 00:58:00,39.5,39.0,29.32,NW,323,13.0,15.0,98,0.09,,,0.05,Wunderground v.1.15,2013-01-30 06:58:00,
2013-01-30 00:59:00,39.5,39.0,29.33,NW,321,13.0,15.0,98,0.09,,,0.05,Wunderground v.1.15,2013-01-30 06:59:00,
2013-01-30 01:00:00,39.5,39.0,29.33,NW,324,13.0,13.0,98,0.09,,,0.05,Wunderground v.1.15,2013-01-30 07:00:00,
2013-01-30 01:01:00,39.5,39.0,29.32,NNW,334,12.0,13.0,98,0.09,,,0.05,Wunderground v.1.15,2013-01-30 07:01:00,
2013-01-30 01:04:00,39.4,38.9,29.32,NW,319,12.0,13.0,98,0.09,,,0.05,Wunderground v.1.15,2013-01-30 07:04:00,
2013-01-30 01:08:00,39.4,38.9,29.29,NNE,14,12.0,14.0,98,0.09,,,0.06,Wunderground v.1.15,2013-01-30 07:08:00,
2013-01-30 01:09:00,39.4,38.9,29.31,NNW,341,12.0,14.0,98,0.13,,,0.07,Wunderground v.1.15,2013-01-30 07:09:00,
2013-01-30 01:14:00,39.4,38.9,29.30,NNW,346,11.0,14.0,98,0.15,,,0.08,Wunderground v.1.15,2013-01-30 07:14:00,
2013-01-30 01:15:00,39.4,38.9,29.31,NNW,338,12.0,14.0,98,0.15,,,0.08,Wunderground v.1.15,2013-01-30 07:15:00,
2013-01-30 01:16:00,39.4,38.9,29.31,NNW,339,12.0,14.0,98,0.15,,,0.08,Wunderground v.1.15,2013-01-30 07:16:00,
2013-01-30 01:19:00,39.4,38.9,29.30,NNW,346,11.0,14.0,98,0.10,,,0.08,Wunderground v.1.15,2013-01-30 07:19:00,
2013-01-30 01:22:00,39.4,38.9,29.30,NNW,342,12.0,13.0,98,0.07,,,0.08,Wunderground v.1.15,2013-01-30 07:22:00,
2013-01-30 01:23:00,39.3,38.8,29.30,North,355,12.0,13.0,98,0.06,,,0.08,Wunderground v.1.15,2013-01-30 07:23:00,
2013-01-30 01:25:00,39.4,38.9,29.30,North,355,12.0,14.0,98,0.05,,,0.08,Wunderground v.1.15,2013-01-30 07:25:00,
2013-01-30 01:26:00,39.3,38.8,29.31,NNW,338,12.0,14.0,98,0.05,,,0.08,Wunderground v.1.15,2013-01-30 07:26:00,
2013-01-30 01:30:00,39.3,38.8,29.31,NNW,341,11.0,11.0,98,0.04,,,0.09,Wunderground v.1.15,2013-01-30 07:30:00,
2013-01-30 01:31:00,39.3,38.8,29.31,North,355,11.0,12.0,98,0.04,,,0.09,Wunderground v.1.15,2013-01-30 07:31:00,
2013-01-30 01:34:00,39.3,38.8,29.31,NNW,327,11.0,13.0,98,0.04,,,0.09,Wunderground v.1.15,2013-01-30 07:34:00,
2013-01-30 01:36:00,39.3,38.8,29.31,NNW,334,11.0,13.0,98,0.04,,,0.09,Wunderground v.1.15,2013-01-30 07:36:00,
2013-01-30 01:37:00,39.3,38.8,29.31,NNW,341,11.0,13.0,98,0.04,,,0.09,Wunderground v.1.15,2013-01-30 07:37:00,
2013-01-30 01:40:00,39.3,38.8,29.31,NNW,346,11.0,13.0,98,0.04,,,0.09,Wunderground v.1.15,2013-01-30 07:40:00,
2013-01-30 01:42:00,39.2,38.7,29.31,NNW,329,11.0,13.0,98,0.04,,,0.09,Wunderground v.1.15,2013-01-30 07:42:00,
2013-01-30 01:47:00,39.2,38.7,29.32,NW,323,11.0,13.0,98,0.00,,,0.09,Wunderground v.1.15,2013-01-30 07:47:00,
2013-01-30 01:51:00,39.2,38.7,29.33,NNW,330,11.0,14.0,98,0.00,,,0.09,Wunderground v.1.15,2013-01-30 07:51:00,
2013-01-30 01:54:00,39.1,38.6,29.32,NNW,328,11.0,14.0,98,0.00,,,0.09,Wunderground v.1.15,2013-01-30 07:54:00,
2013-01-30 01:55:00,39.1,38.6,29.32,NNW,329,11.0,14.0,98,0.00,,,0.09,Wunderground v.1.15,2013-01-30 07:55:00,
2013-01-30 01:56:00,39.1,38.6,29.32,NW,324,11.0,14.0,98,0.00,,,0.09,Wunderground v.1.15,2013-01-30 07:56:00,
2013-01-30 01:57:00,39.1,38.6,29.32,NNW,331,11.0,14.0,98,0.00,,,0.09,Wunderground v.1.15,2013-01-30 07:57:00,
2013-01-30 02:02:00,39.1,38.6,29.31,NNW,348,11.0,13.0,98,0.00,,,0.10,Wunderground v.1.15,2013-01-30 08:02:00,
2013-01-30 02:05:00,39.0,38.5,29.30,NNW,340,11.0,13.0,98,0.00,,,0.10,Wunderground v.1.15,2013-01-30 08:05:00,
2013-01-30 02:06:00,39.0,38.5,29.30,NNW,342,11.0,13.0,98,0.00,,,0.10,Wunderground v.1.15,2013-01-30 08:06:00,
2013-01-30 02:08:00,39.0,38.5,29.30,North,355,11.0,13.0,98,0.00,,,0.10,Wunderground v.1.15,2013-01-30 08:08:00,
2013-01-30 02:11:00,39.0,38.5,29.30,NNW,339,11.0,12.0,98,0.00,,,0.10,Wunderground v.1.15,2013-01-30 08:11:00,
2013-01-30 02:12:00,38.9,38.4,29.31,NNW,342,11.0,12.0,98,0.00,,,0.10,Wunderground v.1.15,2013-01-30 08:12:00,
2013-01-30 02:13:00,38.9,38.4,29.31,North,350,11.0,12.0,98,0.00,,,0.10,Wunderground v.1.15,2013-01-30 08:13:00,
2013-01-30 02:14:00,38.9,38.4,29.31,NNW,346,11.0,12.0,98,0.00,,,0.10,Wunderground v.1.15,2013-01-30 08:14:00,
2013-01-30 02:17:00,38.9,38.4,29.31,North,350,10.0,12.0,98,0.00,,,0.10,Wunderground v.1.15,2013-01-30 08:17:00,
2013-01-30 02:19:00,38.9,38.4,29.32,NNW,333,9.0,12.0,98,0.00,,,0.10,Wunderground v.1.15,2013-01-30 08:19:00,
2013-01-30 02:21:00,38.9,38.4,29.32,NNW,327,9.0,10.0,98,0.00,,,0.10,Wunderground v.1.15,2013-01-30 08:21:00,
2013-01-30 02:23:00,38.9,38.4,29.33,NW,320,9.0,10.0,98,0.00,,,0.10,Wunderground v.1.15,2013-01-30 08:23:00,
2013-01-30 02:26:00,39.0,38.5,29.33,NW,315,8.0,10.0,98,0.00,,,0.10,Wunderground v.1.15,2013-01-30 08:26:00,
2013-01-30 02:27:00,39.0,38.5,29.33,NNW,327,8.0,10.0,98,0.00,,,0.10,Wunderground v.1.15,2013-01-30 08:27:00,
2013-01-30 02:28:00,38.9,38.4,29.33,NW,316,8.0,10.0,98,0.00,,,0.10,Wunderground v.1.15,2013-01-30 08:28:00,
2013-01-30 02:31:00,38.9,38.4,29.33,NW,319,8.0,8.0,98,0.00,,,0.10,Wunderground v.1.15,2013-01-30 08:31:00,
2013-01-30 02:32:00,38.9,38.4,29.33,NW,321,8.0,8.0,98,0.00,,,0.10,Wunderground v.1.15,2013-01-30 08:32:00,
2013-01-30 02:33:00,38.9,38.4,29.33,NW,319,8.0,8.0,98,0.00,,,0.10,Wunderground v.1.15,2013-01-30 08:33:00,
2013-01-30 02:34:00,38.9,38.4,29.34,NW,323,8.0,8.0,98,0.00,,,0.10,Wunderground v.1.15,2013-01-30 08:34:00,
2013-01-30 02:38:00,38.9,38.4,29.33,NNW,329,8.0,10.0,98,0.00,,,0.10,Wunderground v.1.15,2013-01-30 08:38:00,
2013-01-30 02:39:00,38.9,38.4,29.33,NNW,329,8.0,10.0,98,0.00,,,0.10,Wunderground v.1.15,2013-01-30 08:39:00,
2013-01-30 02:41:00,38.9,38.4,29.33,NNW,331,8.0,9.0,98,0.00,,,0.10,Wunderground v.1.15,2013-01-30 08:41:00,
2013-01-30 02:42:00,38.9,38.4,29.33,NNW,339,8.0,11.0,98,0.00,,,0.10,Wunderground v.1.15,2013-01-30 08:42:00,
2013-01-30 02:45:00,38.8,38.3,29.31,NNW,331,9.0,11.0,98,0.00,,,0.11,Wunderground v.1.15,2013-01-30 08:45:00,
2013-01-30 02:47:00,38.8,38.3,29.30,NW,318,10.0,13.0,98,0.00,,,0.11,Wunderground v.1.15,2013-01-30 08:47:00,
2013-01-30 02:52:00,38.5,38.0,29.33,NNW,327,11.0,14.0,98,0.16,,,0.12,Wunderground v.1.15,2013-01-30 08:52:00,
2013-01-30 02:53:00,38.5,38.0,29.33,NNW,337,11.0,14.0,98,0.13,,,0.12,Wunderground v.1.15,2013-01-30 08:53:00,
2013-01-30 02:55:00,38.4,37.9,29.34,NNW,331,11.0,14.0,98,0.09,,,0.12,Wunderground v.1.15,2013-01-30 08:55:00,
2013-01-30 02:57:00,38.4,37.9,29.34,NNW,329,10.0,14.0,98,0.07,,,0.12,Wunderground v.1.15,2013-01-30 08:57:00,
2013-01-30 03:01:00,38.4,37.9,29.35,NW,308,8.0,8.0,98,0.06,,,0.13,Wunderground v.1.15,2013-01-30 09:01:00,
2013-01-30 03:02:00,38.4,37.9,29.36,NW,309,7.0,9.0,98,0.06,,,0.13,Wunderground v.1.15,2013-01-30 09:02:00,
2013-01-30 03:04:00,38.4,37.9,29.36,NW,306,6.0,9.0,98,0.06,,,0.13,Wunderground v.1.15,2013-01-30 09:04:00,
2013-01-30 03:06:00,38.4,37.9,29.36,WNW,301,6.0,9.0,98,0.10,,,0.14,Wunderground v.1.15,2013-01-30 09:06:00,
2013-01-30 03:10:00,38.4,37.9,29.37,NW,304,7.0,7.0,98,0.13,,,0.15,Wunderground v.1.15,2013-01-30 09:10:00,
2013-01-30 03:11:00,38.3,37.8,29.37,NW,311,7.0,9.0,98,0.13,,,0.15,Wunderground v.1.15,2013-01-30 09:11:00,
2013-01-30 03:12:00,38.3,37.8,29.36,NW,312,7.0,9.0,98,0.13,,,0.15,Wunderground v.1.15,2013-01-30 09:12:00,
2013-01-30 03:13:00,38.3,37.8,29.37,NW,309,7.0,9.0,98,0.13,,,0.15,Wunderground v.1.15,2013-01-30 09:13:00,
2013-01-30 03:19:00,38.2,37.7,29.35,NW,313,7.0,9.0,98,0.11,,,0.16,Wunderground v.1.15,2013-01-30 09:19:00,
2013-01-30 03:20:00,38.2,37.7,29.35,NW,313,6.0,6.0,98,0.11,,,0.16,Wunderground v.1.15,2013-01-30 09:20:00,
2013-01-30 03:22:00,38.2,37.7,29.34,NW,313,5.0,6.0,98,0.09,,,0.16,Wunderground v.1.15,2013-01-30 09:22:00,
2013-01-30 03:25:00,38.2,37.7,29.34,NW,316,5.0,6.0,98,0.07,,,0.17,Wunderground v.1.15,2013-01-30 09:25:00,
2013-01-30 03:30:00,38.2,37.7,29.32,North,360,4.0,4.0,98,0.07,,,0.17,Wunderground v.1.15,2013-01-30 09:30:00,
2013-01-30 03:33:00,38.1,37.6,29.32,North,355,4.0,5.0,98,0.07,,,0.17,Wunderground v.1.15,2013-01-30 09:33:00,
2013-01-30 03:34:00,38.1,37.6,29.31,NNW,347,4.0,5.0,98,0.06,,,0.17,Wunderground v.1.15,2013-01-30 09:34:00,
2013-01-30 03:35:00,38.1,37.6,29.31,North,350,4.0,5.0,98,0.05,,,0.17,Wunderground v.1.15,2013-01-30 09:35:00,
2013-01-30 03:40:00,38.1,37.6,29.28,NNE,21,4.0,5.0,98,0.04,,,0.17,Wunderground v.1.15,2013-01-30 09:40:00,
2013-01-30 03:41:00,38.0,37.5,29.27,NNE,24,4.0,5.0,98,0.00,,,0.17,Wunderground v.1.15,2013-01-30 09:41:00,
2013-01-30 03:42:00,38.0,37.5,29.27,NNE,26,4.0,5.0,98,0.00,,,0.17,Wunderground v.1.15,2013-01-30 09:42:00,
2013-01-30 03:43:00,38.0,37.5,29.27,NNE,33,4.0,5.0,98,0.00,,,0.17,Wunderground v.1.15,2013-01-30 09:43:00,
2013-01-30 03:49:00,37.9,37.4,29.24,NE,56,6.0,10.0,98,0.00,,,0.17,Wunderground v.1.15,2013-01-30 09:49:00,
2013-01-30 03:52:00,37.8,37.3,29.23,NE,50,8.0,10.0,98,0.00,,,0.17,Wunderground v.1.15,2013-01-30 09:52:00,
2013-01-30 03:54:00,37.7,37.2,29.23,NE,51,9.0,11.0,98,0.00,,,0.17,Wunderground v.1.15,2013-01-30 09:54:00,
2013-01-30 03:55:00,37.7,37.2,29.23,NE,50,9.0,11.0,98,0.00,,,0.17,Wunderground v.1.15,2013-01-30 09:55:00,
2013-01-30 03:58:00,37.5,37.0,29.23,NE,36,9.0,11.0,98,0.00,,,0.17,Wunderground v.1.15,2013-01-30 09:58:00,
2013-01-30 04:01:00,37.4,36.9,29.23,NNE,28,9.0,9.0,98,0.00,,,0.17,Wunderground v.1.15,2013-01-30 10:01:00,
2013-01-30 04:03:00,37.4,36.9,29.23,NNE,31,9.0,9.0,98,0.00,,,0.17,Wunderground v.1.15,2013-01-30 10:03:00,
2013-01-30 04:06:00,37.3,36.8,29.25,NNE,22,8.0,9.0,98,0.00,,,0.17,Wunderground v.1.15,2013-01-30 10:06:00,
2013-01-30 04:08:00,37.3,36.8,29.25,NNE,24,7.0,9.0,98,0.00,,,0.17,Wunderground v.1.15,2013-01-30 10:08:00,
2013-01-30 04:09:00,37.3,36.8,29.25,NNE,33,7.0,9.0,98,0.00,,,0.17,Wunderground v.1.15,2013-01-30 10:09:00,
2013-01-30 04:13:00,37.2,36.7,29.25,NNE,22,8.0,12.0,98,0.00,,,0.17,Wunderground v.1.15,2013-01-30 10:13:00,
2013-01-30 04:14:00,37.2,36.7,29.25,NNE,14,8.0,12.0,98,0.00,,,0.17,Wunderground v.1.15,2013-01-30 10:14:00,
2013-01-30 04:16:00,37.1,36.6,29.25,NNE,15,9.0,12.0,98,0.00,,,0.17,Wunderground v.1.15,2013-01-30 10:16:00,
2013-01-30 04:17:00,37.0,36.5,29.25,North,9,9.0,12.0,98,0.00,,,0.17,Wunderground v.1.15,2013-01-30 10:17:00,
2013-01-30 04:22:00,36.9,36.4,29.25,North,5,10.0,11.0,98,0.00,,,0.17,Wunderground v.1.15,2013-01-30 10:22:00,
2013-01-30 04:23:00,36.9,36.4,29.25,NNE,19,10.0,11.0,98,0.00,,,0.17,Wunderground v.1.15,2013-01-30 10:23:00,
2013-01-30 04:24:00,36.9,36.4,29.26,North,5,10.0,12.0,98,0.00,,,0.17,Wunderground v.1.15,2013-01-30 10:24:00,
2013-01-30 04:26:00,36.8,36.3,29.25,North,11,10.0,13.0,98,0.00,,,0.17,Wunderground v.1.15,2013-01-30 10:26:00,
2013-01-30 04:29:00,36.8,36.3,29.25,NNE,15,11.0,13.0,98,0.00,,,0.17,Wunderground v.1.15,2013-01-30 10:29:00,
2013-01-30 04:30:00,36.8,36.3,29.26,NNE,16,11.0,11.0,98,0.00,,,0.17,Wunderground v.1.15,2013-01-30 10:30:00,
2013-01-30 04:34:00,36.8,36.3,29.25,NNE,26,10.0,11.0,98,0.00,,,0.17,Wunderground v.1.15,2013-01-30 10:34:00,
2013-01-30 04:36:00,36.8,36.3,29.25,NNE,29,10.0,11.0,98,0.00,,,0.17,Wunderground v.1.15,2013-01-30 10:36:00,
2013-01-30 04:37:00,36.8,36.3,29.25,NE,34,10.0,11.0,98,0.00,,,0.17,Wunderground v.1.15,2013-01-30 10:37:00,
2013-01-30 04:38:00,36.8,36.3,29.25,NNE,32,10.0,11.0,98,0.00,,,0.17,Wunderground v.1.15,2013-01-30 10:38:00,
2013-01-30 04:39:00,36.8,36.3,29.25,NNE,32,10.0,11.0,98,0.00,,,0.17,Wunderground v.1.15,2013-01-30 10:39:00,
2013-01-30 04:43:00,36.7,36.2,29.24,NNE,28,10.0,10.0,98,0.00,,,0.17,Wunderground v.1.15,2013-01-30 10:43:00,
2013-01-30 04:44:00,36.7,36.2,29.24,NE,36,9.0,10.0,98,0.00,,,0.17,Wunderground v.1.15,2013-01-30 10:44:00,
2013-01-30 04:45:00,36.8,36.3,29.24,NE,36,9.0,10.0,98,0.00,,,0.17,Wunderground v.1.15,2013-01-30 10:45:00,
2013-01-30 04:50:00,36.7,36.2,29.24,NNE,29,8.0,8.0,98,0.00,,,0.17,Wunderground v.1.15,2013-01-30 10:50:00,
2013-01-30 04:52:00,36.7,36.2,29.24,NNE,33,8.0,8.0,98,0.00,,,0.17,Wunderground v.1.15,2013-01-30 10:52:00,
2013-01-30 04:53:00,36.7,36.2,29.23,NE,34,8.0,8.0,98,0.00,,,0.17,Wunderground v.1.15,2013-01-30 10:53:00,
2013-01-30 04:57:00,36.6,36.1,29.23,NE,34,8.0,10.0,98,0.00,,,0.17,Wunderground v.1.15,2013-01-30 10:57:00,
2013-01-30 04:58:00,36.6,36.1,29.23,NE,34,7.0,10.0,98,0.00,,,0.17,Wunderground v.1.15,2013-01-30 10:58:00,
2013-01-30 05:02:00,36.6,36.1,29.23,NE,35,8.0,10.0,98,0.00,,,0.17,Wunderground v.1.15,2013-01-30 11:02:00,
2013-01-30 05:04:00,36.6,36.1,29.23,NNE,31,8.0,10.0,98,0.00,,,0.17,Wunderground v.1.15,2013-01-30 11:04:00,
2013-01-30 05:05:00,36.6,36.1,29.23,NE,35,8.0,10.0,98,0.00,,,0.17,Wunderground v.1.15,2013-01-30 11:05:00,
2013-01-30 05:06:00,36.6,36.1,29.23,NE,36,8.0,10.0,98,0.00,,,0.17,Wunderground v.1.15,2013-01-30 11:06:00,
2013-01-30 05:07:00,36.6,36.1,29.24,NE,36,8.0,10.0,98,0.00,,,0.17,Wunderground v.1.15,2013-01-30 11:07:00,
2013-01-30 05:10:00,36.6,36.1,29.24,NE,35,7.0,7.0,98,0.00,,,0.17,Wunderground v.1.15,2013-01-30 11:10:00,
2013-01-30 05:12:00,36.6,36.1,29.24,NNE,28,7.0,7.0,98,0.00,,,0.17,Wunderground v.1.15,2013-01-30 11:12:00,
2013-01-30 05:13:00,36.6,36.1,29.24,NNE,28,7.0,7.0,98,0.00,,,0.17,Wunderground v.1.15,2013-01-30 11:13:00,
2013-01-30 05:15:00,36.6,36.1,29.23,NNE,27,6.0,7.0,98,0.00,,,0.17,Wunderground v.1.15,2013-01-30 11:15:00,
2013-01-30 05:16:00,36.5,36.0,29.23,NNE,28,6.0,7.0,98,0.00,,,0.17,Wunderground v.1.15,2013-01-30 11:16:00,
2013-01-30 05:19:00,36.5,36.0,29.24,NNE,28,6.0,7.0,98,0.00,,,0.17,Wunderground v.1.15,2013-01-30 11:19:00,
2013-01-30 05:20:00,36.5,36.0,29.24,NNE,28,6.0,6.0,98,0.00,,,0.17,Wunderground v.1.15,2013-01-30 11:20:00,
2013-01-30 05:23:00,36.5,36.0,29.24,NNE,29,5.0,6.0,98,0.00,,,0.17,Wunderground v.1.15,2013-01-30 11:23:00,
2013-01-30 05:26:00,36.6,36.1,29.24,NNE,31,5.0,6.0,98,0.00,,,0.17,Wunderground v.1.15,2013-01-30 11:26:00,
2013-01-30 05:27:00,36.5,36.0,29.25,NE,44,5.0,6.0,98,0.00,,,0.17,Wunderground v.1.15,2013-01-30 11:27:00,
2013-01-30 05:33:00,36.5,36.0,29.24,NE,46,5.0,5.0,98,0.00,,,0.17,Wunderground v.1.15,2013-01-30 11:33:00,
2013-01-30 05:35:00,36.5,36.0,29.25,NE,46,5.0,5.0,98,0.00,,,0.17,Wunderground v.1.15,2013-01-30 11:35:00,
2013-01-30 05:37:00,36.5,36.0,29.25,NE,49,5.0,6.0,98,0.00,,,0.17,Wunderground v.1.15,2013-01-30 11:37:00,
2013-01-30 05:40:00,36.5,36.0,29.24,NE,51,5.0,5.0,98,0.00,,,0.17,Wunderground v.1.15,2013-01-30 11:40:00,
2013-01-30 05:42:00,36.5,36.0,29.24,NE,51,5.0,6.0,98,0.00,,,0.17,Wunderground v.1.15,2013-01-30 11:42:00,
2013-01-30 05:45:00,36.5,36.0,29.23,NE,51,5.0,6.0,98,0.00,,,0.17,Wunderground v.1.15,2013-01-30 11:45:00,
2013-01-30 05:46:00,36.5,36.0,29.24,NE,51,5.0,6.0,98,0.00,,,0.17,Wunderground v.1.15,2013-01-30 11:46:00,
2013-01-30 05:47:00,36.5,36.0,29.24,NE,51,5.0,6.0,98,0.00,,,0.17,Wunderground v.1.15,2013-01-30 11:47:00,
2013-01-30 05:49:00,36.5,36.0,29.24,NE,51,5.0,6.0,98,0.00,,,0.17,Wunderground v.1.15,2013-01-30 11:49:00,
2013-01-30 05:51:00,36.5,36.0,29.24,NE,51,4.0,5.0,98,0.00,,,0.17,Wunderground v.1.15,2013-01-30 11:51:00,
2013-01-30 05:52:00,36.5,36.0,29.24,NE,51,4.0,5.0,98,0.00,,,0.17,Wunderground v.1.15,2013-01-30 11:52:00,
2013-01-30 05:53:00,36.5,36.0,29.24,NE,51,4.0,5.0,98,0.00,,,0.17,Wunderground v.1.15,2013-01-30 11:53:00,
2013-01-30 05:56:00,36.5,36.0,29.25,NE,51,4.0,5.0,98,0.00,,,0.17,Wunderground v.1.15,2013-01-30 11:56:00,
2013-01-30 05:57:00,36.5,36.0,29.25,NE,51,3.0,5.0,98,0.00,,,0.17,Wunderground v.1.15,2013-01-30 11:57:00,
2013-01-30 05:59:00,36.5,36.0,29.25,NE,51,3.0,5.0,98,0.00,,,0.17,Wunderground v.1.15,2013-01-30 11:59:00,
2013-01-30 06:02:00,36.5,36.0,29.23,NE,51,2.0,4.0,98,0.00,,,0.17,Wunderground v.1.15,2013-01-30 12:02:00,
2013-01-30 06:03:00,36.5,36.0,29.22,NE,51,2.0,6.0,98,0.00,,,0.17,Wunderground v.1.15,2013-01-30 12:03:00,
2013-01-30 06:07:00,36.6,36.1,29.22,ENE,59,3.0,6.0,98,0.00,,,0.17,Wunderground v.1.15,2013-01-30 12:07:00,
2013-01-30 06:08:00,36.5,36.0,29.22,ENE,59,3.0,6.0,98,0.00,,,0.17,Wunderground v.1.15,2013-01-30 12:08:00,
2013-01-30 06:11:00,36.5,36.0,29.21,ENE,59,5.0,6.0,98,0.00,,,0.17,Wunderground v.1.15,2013-01-30 12:11:00,
2013-01-30 06:12:00,36.6,36.1,29.21,ENE,59,5.0,6.0,98,0.00,,,0.17,Wunderground v.1.15,2013-01-30 12:12:00,
2013-01-30 06:13:00,36.6,36.1,29.22,ENE,59,5.0,6.0,98,0.00,,,0.17,Wunderground v.1.15,2013-01-30 12:13:00,
2013-01-30 06:18:00,36.6,36.1,29.22,ENE,59,4.0,6.0,98,0.00,,,0.17,Wunderground v.1.15,2013-01-30 12:18:00,
2013-01-30 06:19:00,36.6,36.1,29.23,ENE,59,4.0,6.0,98,0.00,,,0.17,Wunderground v.1.15,2013-01-30 12:19:00,
2013-01-30 06:20:00,36.6,36.1,29.22,ENE,59,4.0,4.0,98,0.00,,,0.17,Wunderground v.1.15,2013-01-30 12:20:00,
2013-01-30 06:24:00,36.7,36.2,29.23,ENE,59,3.0,4.0,98,0.00,,,0.17,Wunderground v.1.15,2013-01-30 12:24:00,
2013-01-30 06:26:00,36.8,36.3,29.22,ENE,59,3.0,4.0,98,0.00,,,0.17,Wunderground v.1.15,2013-01-30 12:26:00,
2013-01-30 06:27:00,36.8,36.3,29.22,ENE,59,2.0,4.0,98,0.00,,,0.17,Wunderground v.1.15,2013-01-30 12:27:00,
2013-01-30 06:29:00,36.8,36.3,29.22,ENE,59,2.0,4.0,98,0.00,,,0.18,Wunderground v.1.15,2013-01-30 12:29:00,
2013-01-30 06:30:00,36.8,36.3,29.22,ENE,59,3.0,3.0,98,0.00,,,0.18,Wunderground v.1.15,2013-01-30 12:30:00,
2013-01-30 06:33:00,36.9,36.4,29.22,ENE,59,3.0,3.0,98,0.00,,,0.18,Wunderground v.1.15,2013-01-30 12:33:00,
2013-01-30 06:34:00,36.9,36.4,29.22,ENE,59,3.0,3.0,98,0.00,,,0.18,Wunderground v.1.15,2013-01-30 12:34:00,
2013-01-30 06:36:00,36.9,36.4,29.22,ENE,59,3.0,3.0,98,0.00,,,0.18,Wunderground v.1.15,2013-01-30 12:36:00,
2013-01-30 06:38:00,36.9,36.4,29.23,ENE,59,3.0,3.0,98,0.00,,,0.18,Wunderground v.1.15,2013-01-30 12:38:00,
2013-01-30 06:42:00,37.0,36.7,29.23,ENE,59,3.0,3.0,99,0.00,,,0.18,Wunderground v.1.15,2013-01-30 12:42:00,
2013-01-30 06:45:00,37.0,36.7,29.22,ENE,59,2.0,3.0,99,0.00,,,0.18,Wunderground v.1.15,2013-01-30 12:45:00,
2013-01-30 06:48:00,37.0,36.7,29.21,ENE,59,2.0,3.0,99,0.00,,,0.18,Wunderground v.1.15,2013-01-30 12:48:00,
2013-01-30 06:50:00,37.0,36.7,29.21,ENE,59,2.0,3.0,99,0.00,,,0.18,Wunderground v.1.15,2013-01-30 12:50:00,
2013-01-30 06:55:00,37.0,36.5,29.20,ENE,59,2.0,3.0,98,0.00,,,0.18,Wunderground v.1.15,2013-01-30 12:55:00,
2013-01-30 06:56:00,37.0,36.7,29.20,ENE,59,2.0,3.0,99,0.00,,,0.18,Wunderground v.1.15,2013-01-30 12:56:00,
2013-01-30 06:57:00,37.0,36.5,29.20,ENE,59,2.0,3.0,98,0.00,,,0.18,Wunderground v.1.15,2013-01-30 12:57:00,
2013-01-30 06:59:00,37.0,36.5,29.20,ENE,59,2.0,3.0,98,0.00,,,0.18,Wunderground v.1.15,2013-01-30 12:59:00,
2013-01-30 07:02:00,37.0,36.5,29.19,ENE,59,3.0,4.0,98,0.00,,,0.18,Wunderground v.1.15,2013-01-30 13:02:00,
2013-01-30 07:03:00,37.0,36.5,29.19,ENE,59,3.0,4.0,98,0.00,,,0.18,Wunderground v.1.15,2013-01-30 13:03:00,
2013-01-30 07:05:00,37.0,36.7,29.20,ENE,59,3.0,4.0,99,0.00,,,0.18,Wunderground v.1.15,2013-01-30 13:05:00,
2013-01-30 07:07:00,37.0,36.7,29.19,ENE,60,3.0,4.0,99,0.00,,,0.18,Wunderground v.1.15,2013-01-30 13:07:00,
2013-01-30 07:08:00,37.1,36.6,29.20,ENE,60,3.0,4.0,98,0.00,,,0.18,Wunderground v.1.15,2013-01-30 13:08:00,
2013-01-30 07:09:00,37.0,36.5,29.20,ENE,59,3.0,4.0,98,0.00,,,0.18,Wunderground v.1.15,2013-01-30 13:09:00,
2013-01-30 07:12:00,37.1,36.6,29.21,ENE,59,3.0,3.0,98,0.00,,,0.18,Wunderground v.1.15,2013-01-30 13:12:00,
2013-01-30 07:13:00,37.1,36.6,29.21,ENE,59,3.0,3.0,98,0.00,,,0.18,Wunderground v.1.15,2013-01-30 13:13:00,
2013-01-30 07:14:00,37.1,36.6,29.21,ENE,60,3.0,3.0,98,0.00,,,0.18,Wunderground v.1.15,2013-01-30 13:14:00,
2013-01-30 07:15:00,37.1,36.6,29.20,ENE,59,3.0,3.0,98,0.00,,,0.18,Wunderground v.1.15,2013-01-30 13:15:00,
2013-01-30 07:18:00,37.1,36.6,29.20,ENE,63,3.0,4.0,98,0.00,,,0.18,Wunderground v.1.15,2013-01-30 13:18:00,
2013-01-30 07:19:00,37.1,36.8,29.20,ENE,64,3.0,4.0,99,0.00,,,0.18,Wunderground v.1.15,2013-01-30 13:19:00,
2013-01-30 07:21:00,37.2,36.9,29.19,ENE,65,3.0,4.0,99,0.00,,,0.18,Wunderground v.1.15,2013-01-30 13:21:00,
2013-01-30 07:24:00,37.2,36.9,29.19,ENE,67,4.0,4.0,99,0.00,,,0.18,Wunderground v.1.15,2013-01-30 13:24:00,
2013-01-30 07:25:00,37.2,36.9,29.19,ENE,67,4.0,4.0,99,0.00,,,0.18,Wunderground v.1.15,2013-01-30 13:25:00,
2013-01-30 07:26:00,37.2,36.9,29.19,ENE,67,4.0,4.0,99,0.00,,,0.18,Wunderground v.1.15,2013-01-30 13:26:00,
2013-01-30 07:28:00,37.2,36.9,29.18,ENE,68,4.0,4.0,99,0.00,,,0.18,Wunderground v.1.15,2013-01-30 13:28:00,
2013-01-30 07:31:00,37.2,36.9,29.19,ENE,69,4.0,5.0,99,0.00,,,0.18,Wunderground v.1.15,2013-01-30 13:31:00,
2013-01-30 07:32:00,37.2,36.9,29.19,ENE,69,4.0,5.0,99,0.00,,,0.18,Wunderground v.1.15,2013-01-30 13:32:00,
2013-01-30 07:34:00,37.2,36.7,29.20,East,80,4.0,5.0,98,0.00,,,0.18,Wunderground v.1.15,2013-01-30 13:34:00,
2013-01-30 07:36:00,37.2,36.7,29.20,East,91,4.0,6.0,98,0.00,,,0.18,Wunderground v.1.15,2013-01-30 13:36:00,
2013-01-30 07:37:00,37.2,36.7,29.20,East,91,4.0,6.0,98,0.00,,,0.18,Wunderground v.1.15,2013-01-30 13:37:00,
2013-01-30 07:42:00,37.3,36.8,29.19,ESE,111,5.0,6.0,98,0.00,,,0.18,Wunderground v.1.15,2013-01-30 13:42:00,
2013-01-30 07:43:00,37.3,36.8,29.19,ESE,112,5.0,6.0,98,0.00,,,0.19,Wunderground v.1.15,2013-01-30 13:43:00,
2013-01-30 07:47:00,37.3,36.8,29.19,ESE,112,5.0,6.0,98,0.00,,,0.19,Wunderground v.1.15,2013-01-30 13:47:00,
2013-01-30 07:49:00,37.4,36.9,29.19,ESE,114,5.0,6.0,98,0.00,,,0.19,Wunderground v.1.15,2013-01-30 13:49:00,
2013-01-30 07:50:00,37.4,36.9,29.19,ESE,114,5.0,5.0,98,0.00,,,0.19,Wunderground v.1.15,2013-01-30 13:50:00,
2013-01-30 07:51:00,37.4,36.9,29.19,ESE,114,5.0,5.0,98,0.00,,,0.19,Wunderground v.1.15,2013-01-30 13:51:00,
2013-01-30 07:52:00,37.5,37.0,29.19,ESE,114,5.0,5.0,98,0.07,,,0.19,Wunderground v.1.15,2013-01-30 13:52:00,
2013-01-30 07:54:00,37.5,37.0,29.18,ESE,114,5.0,5.0,98,0.07,,,0.20,Wunderground v.1.15,2013-01-30 13:54:00,
2013-01-30 07:57:00,37.5,37.2,29.17,ESE,114,4.0,5.0,99,0.07,,,0.20,Wunderground v.1.15,2013-01-30 13:57:00,
2013-01-30 07:58:00,37.5,37.2,29.18,ESE,114,4.0,5.0,99,0.07,,,0.20,Wunderground v.1.15,2013-01-30 13:58:00,
2013-01-30 07:59:00,37.5,37.0,29.18,ESE,114,4.0,5.0,98,0.07,,,0.20,Wunderground v.1.15,2013-01-30 13:59:00,
2013-01-30 08:02:00,37.5,37.2,29.18,ESE,114,3.0,3.0,99,0.06,,,0.20,Wunderground v.1.15,2013-01-30 14:02:00,
2013-01-30 08:04:00,37.5,37.2,29.18,ESE,114,3.0,3.0,99,0.05,,,0.20,Wunderground v.1.15,2013-01-30 14:04:00,
2013-01-30 08:07:00,37.6,37.3,29.18,ESE,114,3.0,3.0,99,0.04,,,0.20,Wunderground v.1.15,2013-01-30 14:07:00,
2013-01-30 08:08:00,37.6,37.3,29.17,ESE,114,3.0,3.0,99,0.04,,,0.21,Wunderground v.1.15,2013-01-30 14:08:00,
2013-01-30 08:10:00,37.6,37.3,29.18,ESE,114,3.0,3.0,99,0.04,,,0.21,Wunderground v.1.15,2013-01-30 14:10:00,
2013-01-30 08:12:00,37.7,37.4,29.19,ESE,115,3.0,5.0,99,0.04,,,0.21,Wunderground v.1.15,2013-01-30 14:12:00,
2013-01-30 08:13:00,37.7,37.4,29.19,ESE,117,3.0,5.0,99,0.12,,,0.22,Wunderground v.1.15,2013-01-30 14:13:00,
2013-01-30 08:14:00,37.7,37.4,29.19,SSE,151,3.0,6.0,99,0.12,,,0.22,Wunderground v.1.15,2013-01-30 14:14:00,
2013-01-30 08:20:00,38.0,37.7,29.20,West,259,8.0,12.0,99,0.08,,,0.22,Wunderground v.1.15,2013-01-30 14:20:00,
2013-01-30 08:21:00,38.1,37.8,29.20,SW,236,9.0,16.0,99,0.07,,,0.22,Wunderground v.1.15,2013-01-30 14:21:00,
2013-01-30 08:23:00,38.2,37.9,29.21,SW,215,11.0,21.0,99,0.06,,,0.22,Wunderground v.1.15,2013-01-30 14:23:00,
2013-01-30 08:26:00,38.7,38.4,29.22,WSW,254,16.0,31.0,99,0.05,,,0.23,Wunderground v.1.15,2013-01-30 14:26:00,
2013-01-30 08:28:00,38.4,38.1,29.22,West,261,18.0,31.0,99,0.05,,,0.23,Wunderground v.1.15,2013-01-30 14:28:00,
2013-01-30 08:29:00,38.3,38.0,29.22,West,274,18.0,31.0,99,0.05,,,0.23,Wunderground v.1.15,2013-01-30 14:29:00,
2013-01-30 08:34:00,37.4,36.9,29.21,WNW,290,17.0,18.0,98,0.05,,,0.23,Wunderground v.1.15,2013-01-30 14:34:00,
2013-01-30 08:37:00,37.0,36.5,29.21,West,261,14.0,19.0,98,0.05,,,0.23,Wunderground v.1.15,2013-01-30 14:37:00,
2013-01-30 08:39:00,36.9,36.4,29.21,West,279,13.0,19.0,98,0.04,,,0.23,Wunderground v.1.15,2013-01-30 14:39:00,
2013-01-30 08:40:00,36.8,36.3,29.21,WNW,291,13.0,13.0,98,0.04,,,0.23,Wunderground v.1.15,2013-01-30 14:40:00,
2013-01-30 08:41:00,36.7,36.2,29.21,West,271,13.0,13.0,98,0.04,,,0.23,Wunderground v.1.15,2013-01-30 14:41:00,
2013-01-30 08:44:00,36.6,36.1,29.21,WNW,284,12.0,14.0,98,0.00,,,0.23,Wunderground v.1.15,2013-01-30 14:44:00,
2013-01-30 08:46:00,36.5,36.0,29.22,WNW,296,12.0,16.0,98,0.00,,,0.23,Wunderground v.1.15,2013-01-30 14:46:00,
2013-01-30 08:47:00,36.5,36.0,29.22,West,273,12.0,16.0,98,0.00,,,0.23,Wunderground v.1.15,2013-01-30 14:47:00,
2013-01-30 08:50:00,36.4,35.9,29.22,West,264,11.0,11.0,98,0.00,,,0.23,Wunderground v.1.15,2013-01-30 14:50:00,
2013-01-30 08:52:00,36.3,35.8,29.22,WNW,290,12.0,14.0,98,0.00,,,0.23,Wunderground v.1.15,2013-01-30 14:52:00,
2013-01-30 08:53:00,36.2,35.7,29.22,WNW,296,13.0,15.0,98,0.00,,,0.23,Wunderground v.1.15,2013-01-30 14:53:00,
2013-01-30 08:54:00,36.2,35.7,29.23,WNW,286,12.0,15.0,98,0.00,,,0.23,Wunderground v.1.15,2013-01-30 14:54:00,
2013-01-30 08:55:00,36.2,35.7,29.23,NW,304,12.0,15.0,98,0.00,,,0.23,Wunderground v.1.15,2013-01-30 14:55:00,
2013-01-30 08:59:00,36.0,35.5,29.23,WNW,282,12.0,16.0,98,0.00,,,0.23,Wunderground v.1.15,2013-01-30 14:59:00,
2013-01-30 09:00:00,35.9,35.4,29.23,WNW,284,13.0,14.0,98,0.00,,,0.23,Wunderground v.1.15,2013-01-30 15:00:00,
2013-01-30 09:01:00,35.9,35.4,29.23,WNW,287,13.0,15.0,98,0.00,,,0.23,Wunderground v.1.15,2013-01-30 15:01:00,
2013-01-30 09:04:00,35.7,35.2,29.22,WNW,292,14.0,20.0,98,0.00,,,0.23,Wunderground v.1.15,2013-01-30 15:04:00,
2013-01-30 09:05:00,35.6,35.1,29.22,WNW,285,15.0,20.0,98,0.00,,,0.23,Wunderground v.1.15,2013-01-30 15:05:00,
2013-01-30 09:07:00,35.4,34.9,29.22,WNW,289,15.0,20.0,98,0.00,,,0.23,Wunderground v.1.15,2013-01-30 15:07:00,
2013-01-30 09:08:00,35.3,34.8,29.22,WNW,288,16.0,20.0,98,0.00,,,0.23,Wunderground v.1.15,2013-01-30 15:08:00,
2013-01-30 09:10:00,35.2,34.7,29.21,WNW,299,16.0,17.0,98,0.00,,,0.23,Wunderground v.1.15,2013-01-30 15:10:00,
2013-01-30 09:11:00,35.2,34.7,29.21,WNW,299,17.0,17.0,98,0.00,,,0.23,Wunderground v.1.15,2013-01-30 15:11:00,
2013-01-30 09:13:00,35.0,34.5,29.21,WNW,303,17.0,17.0,98,0.00,,,0.23,Wunderground v.1.15,2013-01-30 15:13:00,
2013-01-30 09:14:00,35.0,34.5,29.21,WNW,300,16.0,17.0,98,0.00,,,0.23,Wunderground v.1.15,2013-01-30 15:14:00,
2013-01-30 09:16:00,35.0,34.5,29.21,NW,311,16.0,17.0,98,0.00,,,0.23,Wunderground v.1.15,2013-01-30 15:16:00,
2013-01-30 09:21:00,34.9,34.4,29.21,WNW,303,16.0,17.0,98,0.00,,,0.23,Wunderground v.1.15,2013-01-30 15:21:00,
2013-01-30 09:22:00,34.9,34.4,29.21,NW,309,15.0,17.0,98,0.00,,,0.23,Wunderground v.1.15,2013-01-30 15:22:00,
2013-01-30 09:23:00,34.9,34.4,29.21,West,269,15.0,17.0,98,0.00,,,0.23,Wunderground v.1.15,2013-01-30 15:23:00,
2013-01-30 09:24:00,34.9,34.4,29.21,WNW,295,15.0,17.0,98,0.00,,,0.23,Wunderground v.1.15,2013-01-30 15:24:00,
2013-01-30 09:27:00,35.0,34.5,29.22,NW,306,15.0,17.0,98,0.00,,,0.23,Wunderground v.1.15,2013-01-30 15:27:00,
2013-01-30 09:28:00,35.0,34.5,29.22,WNW,297,15.0,17.0,98,0.00,,,0.23,Wunderground v.1.15,2013-01-30 15:28:00,
2013-01-30 09:31:00,35.0,34.5,29.22,WNW,298,14.0,15.0,98,0.00,,,0.23,Wunderground v.1.15,2013-01-30 15:31:00,
2013-01-30 09:33:00,35.1,34.6,29.22,WNW,286,14.0,15.0,98,0.00,,,0.23,Wunderground v.1.15,2013-01-30 15:33:00,
2013-01-30 09:34:00,35.1,34.6,29.22,NW,304,14.0,15.0,98,0.00,,,0.23,Wunderground v.1.15,2013-01-30 15:34:00,
2013-01-30 09:36:00,35.2,34.7,29.22,WNW,298,14.0,16.0,98,0.00,,,0.23,Wunderground v.1.15,2013-01-30 15:36:00,
2013-01-30 09:39:00,35.1,34.6,29.22,WNW,300,14.0,17.0,98,0.00,,,0.23,Wunderground v.1.15,2013-01-30 15:39:00,
2013-01-30 09:40:00,35.1,34.3,29.22,NW,312,14.0,15.0,97,0.00,,,0.23,Wunderground v.1.15,2013-01-30 15:40:00,
2013-01-30 09:43:00,35.1,34.3,29.22,NW,306,14.0,18.0,97,0.00,,,0.23,Wunderground v.1.15,2013-01-30 15:43:00,
2013-01-30 09:44:00,35.1,34.6,29.21,NW,309,14.0,18.0,98,0.00,,,0.23,Wunderground v.1.15,2013-01-30 15:44:00,
2013-01-30 09:49:00,35.2,34.4,29.21,WNW,303,15.0,19.0,97,0.00,,,0.23,Wunderground v.1.15,2013-01-30 15:49:00,
2013-01-30 09:50:00,35.1,34.3,29.21,NW,310,16.0,16.0,97,0.00,,,0.23,Wunderground v.1.15,2013-01-30 15:50:00,
2013-01-30 09:51:00,35.2,34.4,29.21,WNW,297,16.0,17.0,97,0.00,,,0.23,Wunderground v.1.15,2013-01-30 15:51:00,
2013-01-30 09:52:00,35.2,34.4,29.21,NW,306,16.0,17.0,97,0.00,,,0.23,Wunderground v.1.15,2013-01-30 15:52:00,
2013-01-30 09:55:00,35.2,34.4,29.21,WNW,303,17.0,21.0,97,0.00,,,0.23,Wunderground v.1.15,2013-01-30 15:55:00,
2013-01-30 09:56:00,35.2,34.4,29.21,WNW,292,18.0,21.0,97,0.00,,,0.23,Wunderground v.1.15,2013-01-30 15:56:00,
2013-01-30 09:59:00,35.1,34.3,29.21,WNW,302,18.0,21.0,97,0.00,,,0.23,Wunderground v.1.15,2013-01-30 15:59:00,
2013-01-30 10:00:00,35.1,34.3,29.21,WNW,302,18.0,18.0,97,0.00,,,0.23,Wunderground v.1.15,2013-01-30 16:00:00,
2013-01-30 10:01:00,35.2,34.4,29.21,WNW,296,18.0,18.0,97,0.00,,,0.23,Wunderground v.1.15,2013-01-30 16:01:00,
2013-01-30 10:02:00,35.3,34.5,29.22,WNW,302,17.0,18.0,97,0.00,,,0.23,Wunderground v.1.15,2013-01-30 16:02:00,
2013-01-30 10:05:00,35.3,34.5,29.21,NW,306,16.0,18.0,97,0.00,,,0.23,Wunderground v.1.15,2013-01-30 16:05:00,
2013-01-30 10:06:00,35.3,34.5,29.21,NW,309,16.0,18.0,97,0.00,,,0.23,Wunderground v.1.15,2013-01-30 16:06:00,
2013-01-30 10:08:00,35.3,34.5,29.21,WNW,301,16.0,18.0,97,0.00,,,0.23,Wunderground v.1.15,2013-01-30 16:08:00,
2013-01-30 10:10:00,35.3,34.5,29.21,NW,313,15.0,18.0,97,0.00,,,0.23,Wunderground v.1.15,2013-01-30 16:10:00,
2013-01-30 10:11:00,35.3,34.5,29.21,NW,306,16.0,18.0,97,0.00,,,0.23,Wunderground v.1.15,2013-01-30 16:11:00,
2013-01-30 10:14:00,35.3,34.5,29.22,WNW,296,16.0,18.0,97,0.00,,,0.23,Wunderground v.1.15,2013-01-30 16:14:00,
2013-01-30 10:17:00,35.3,34.3,29.23,NW,306,16.0,18.0,96,0.00,,,0.23,Wunderground v.1.15,2013-01-30 16:17:00,
2013-01-30 10:19:00,35.3,34.3,29.23,WNW,303,16.0,19.0,96,0.00,,,0.23,Wunderground v.1.15,2013-01-30 16:19:00,
2013-01-30 10:21:00,35.1,34.1,29.23,NW,317,17.0,18.0,96,0.00,,,0.23,Wunderground v.1.15,2013-01-30 16:21:00,
2013-01-30 10:22:00,35.1,34.1,29.23,NW,307,17.0,20.0,96,0.00,,,0.23,Wunderground v.1.15,2013-01-30 16:22:00,
2013-01-30 10:23:00,35.1,34.1,29.23,NW,310,17.0,20.0,96,0.00,,,0.23,Wunderground v.1.15,2013-01-30 16:23:00,
2013-01-30 10:25:00,35.1,34.1,29.24,WNW,300,17.0,20.0,96,0.00,,,0.23,Wunderground v.1.15,2013-01-30 16:25:00,
2013-01-30 10:28:00,35.1,34.1,29.23,WNW,294,17.0,20.0,96,0.00,,,0.23,Wunderground v.1.15,2013-01-30 16:28:00,
2013-01-30 10:29:00,35.1,34.1,29.24,WNW,291,16.0,20.0,96,0.00,,,0.23,Wunderground v.1.15,2013-01-30 16:29:00,
2013-01-30 10:30:00,35.2,34.2,29.24,WNW,302,16.0,16.0,96,0.00,,,0.23,Wunderground v.1.15,2013-01-30 16:30:00,
2013-01-30 10:32:00,35.2,34.2,29.24,NW,313,15.0,16.0,96,0.00,,,0.23,Wunderground v.1.15,2013-01-30 16:32:00,
2013-01-30 10:34:00,35.3,34.3,29.24,WNW,287,14.0,16.0,96,0.00,,,0.23,Wunderground v.1.15,2013-01-30 16:34:00,
2013-01-30 10:35:00,35.3,34.3,29.24,WNW,291,13.0,16.0,96,0.00,,,0.23,Wunderground v.1.15,2013-01-30 16:35:00,
2013-01-30 10:41:00,35.4,34.4,29.25,West,266,11.0,14.0,96,0.00,,,0.23,Wunderground v.1.15,2013-01-30 16:41:00,
2013-01-30 10:42:00,35.4,34.4,29.25,WNW,284,11.0,14.0,96,0.00,,,0.23,Wunderground v.1.15,2013-01-30 16:42:00,
2013-01-30 10:43:00,35.4,34.4,29.26,West,281,11.0,14.0,96,0.00,,,0.23,Wunderground v.1.15,2013-01-30 16:43:00,
2013-01-30 10:44:00,35.4,34.4,29.26,WNW,284,11.0,14.0,96,0.00,,,0.23,Wunderground v.1.15,2013-01-30 16:44:00,
2013-01-30 10:49:00,35.3,34.0,29.26,WNW,284,11.0,18.0,95,0.00,,,0.23,Wunderground v.1.15,2013-01-30 16:49:00,
2013-01-30 10:50:00,35.3,34.0,29.26,West,281,12.0,16.0,95,0.00,,,0.23,Wunderground v.1.15,2013-01-30 16:50:00,
2013-01-30 10:55:00,35.1,33.8,29.24,WNW,294,14.0,20.0,95,0.00,,,0.23,Wunderground v.1.15,2013-01-30 16:55:00,
2013-01-30 10:57:00,35.1,33.8,29.24,West,277,15.0,20.0,95,0.00,,,0.23,Wunderground v.1.15,2013-01-30 16:57:00,
2013-01-30 10:58:00,35.0,33.7,29.24,WNW,283,15.0,20.0,95,0.00,,,0.23,Wunderground v.1.15,2013-01-30 16:58:00,
2013-01-30 11:01:00,35.0,33.7,29.25,WNW,299,15.0,15.0,95,0.00,,,0.23,Wunderground v.1.15,2013-01-30 17:01:00,
2013-01-30 11:04:00,35.0,33.7,29.25,WNW,297,16.0,19.0,95,0.00,,,0.23,Wunderground v.1.15,2013-01-30 17:04:00,
2013-01-30 11:05:00,35.0,33.7,29.25,WNW,285,15.0,19.0,95,0.00,,,0.23,Wunderground v.1.15,2013-01-30 17:05:00,
2013-01-30 11:06:00,35.0,33.7,29.25,WNW,298,15.0,19.0,95,0.00,,,0.23,Wunderground v.1.15,2013-01-30 17:06:00,
2013-01-30 11:11:00,34.9,33.6,29.25,WNW,299,16.0,19.0,95,0.00,,,0.23,Wunderground v.1.15,2013-01-30 17:11:00,
2013-01-30 11:13:00,34.9,33.6,29.25,NW,305,16.0,20.0,95,0.00,,,0.23,Wunderground v.1.15,2013-01-30 17:13:00,
2013-01-30 11:18:00,34.7,33.4,29.25,WNW,303,17.0,21.0,95,0.00,,,0.23,Wunderground v.1.15,2013-01-30 17:18:00,
2013-01-30 11:19:00,34.7,33.4,29.25,WNW,286,17.0,21.0,95,0.00,,,0.23,Wunderground v.1.15,2013-01-30 17:19:00,
2013-01-30 11:20:00,34.7,33.4,29.25,WNW,294,16.0,16.0,95,0.00,,,0.23,Wunderground v.1.15,2013-01-30 17:20:00,
2013-01-30 11:22:00,34.6,33.3,29.25,WNW,300,16.0,18.0,95,0.00,,,0.23,Wunderground v.1.15,2013-01-30 17:22:00,
2013-01-30 11:23:00,34.5,33.2,29.25,WNW,296,17.0,18.0,95,0.00,,,0.23,Wunderground v.1.15,2013-01-30 17:23:00,
2013-01-30 11:26:00,34.3,33.0,29.26,WNW,292,17.0,22.0,95,0.00,,,0.23,Wunderground v.1.15,2013-01-30 17:26:00,
2013-01-30 11:28:00,34.3,33.0,29.26,WNW,290,17.0,22.0,95,0.00,,,0.23,Wunderground v.1.15,2013-01-30 17:28:00,
2013-01-30 11:29:00,34.4,33.1,29.26,WNW,298,17.0,22.0,95,0.00,,,0.23,Wunderground v.1.15,2013-01-30 17:29:00,
2013-01-30 11:32:00,34.4,33.1,29.26,West,274,17.0,20.0,95,0.00,,,0.23,Wunderground v.1.15,2013-01-30 17:32:00,
2013-01-30 11:34:00,34.3,33.0,29.26,WNW,301,17.0,20.0,95,0.00,,,0.23,Wunderground v.1.15,2013-01-30 17:34:00,
2013-01-30 11:38:00,34.2,32.9,29.25,WNW,289,17.0,20.0,95,0.00,,,0.23,Wunderground v.1.15,2013-01-30 17:38:00,
2013-01-30 11:39:00,34.2,32.9,29.25,WNW,296,17.0,20.0,95,0.00,,,0.23,Wunderground v.1.15,2013-01-30 17:39:00,
2013-01-30 11:44:00,34.1,32.8,29.25,NW,304,17.0,20.0,95,0.00,,,0.23,Wunderground v.1.15,2013-01-30 17:44:00,
2013-01-30 11:46:00,34.1,32.8,29.25,WNW,299,17.0,20.0,95,0.00,,,0.23,Wunderground v.1.15,2013-01-30 17:46:00,
2013-01-30 11:47:00,34.1,32.8,29.25,WNW,302,17.0,20.0,95,0.00,,,0.23,Wunderground v.1.15,2013-01-30 17:47:00,
2013-01-30 11:49:00,34.1,32.8,29.25,NW,304,18.0,21.0,95,0.00,,,0.23,Wunderground v.1.15,2013-01-30 17:49:00,
2013-01-30 11:51:00,34.0,32.7,29.25,WNW,300,18.0,18.0,95,0.00,,,0.23,Wunderground v.1.15,2013-01-30 17:51:00,
2013-01-30 11:54:00,34.1,32.8,29.25,WNW,299,18.0,19.0,95,0.00,,,0.23,Wunderground v.1.15,2013-01-30 17:54:00,
2013-01-30 11:55:00,34.1,32.8,29.25,WNW,301,18.0,19.0,95,0.00,,,0.23,Wunderground v.1.15,2013-01-30 17:55:00,
2013-01-30 11:56:00,34.1,32.8,29.25,WNW,300,18.0,20.0,95,0.00,,,0.23,Wunderground v.1.15,2013-01-30 17:56:00,
2013-01-30 11:59:00,34.1,32.8,29.26,WNW,296,18.0,20.0,95,0.00,,,0.23,Wunderground v.1.15,2013-01-30 17:59:00,
2013-01-30 12:02:00,33.9,32.6,29.26,West,280,17.0,19.0,95,0.00,,,0.23,Wunderground v.1.15,2013-01-30 18:02:00,
2013-01-30 12:03:00,33.8,32.5,29.27,WNW,289,17.0,20.0,95,0.00,,,0.23,Wunderground v.1.15,2013-01-30 18:03:00,
2013-01-30 12:05:00,33.5,32.2,29.27,WNW,287,16.0,20.0,95,0.00,,,0.23,Wunderground v.1.15,2013-01-30 18:05:00,
2013-01-30 12:06:00,33.5,32.0,29.27,WNW,301,16.0,20.0,94,0.00,,,0.23,Wunderground v.1.15,2013-01-30 18:06:00,
2013-01-30 12:07:00,33.3,32.0,29.27,WNW,284,15.0,20.0,95,0.00,,,0.23,Wunderground v.1.15,2013-01-30 18:07:00,
2013-01-30 12:09:00,33.2,31.9,29.26,WNW,290,15.0,20.0,95,0.00,,,0.23,Wunderground v.1.15,2013-01-30 18:09:00,
2013-01-30 12:12:00,33.0,31.7,29.26,WNW,285,14.0,17.0,95,0.00,,,0.23,Wunderground v.1.15,2013-01-30 18:12:00,
2013-01-30 12:15:00,32.7,31.4,29.26,WNW,301,15.0,19.0,95,0.00,,,0.23,Wunderground v.1.15,2013-01-30 18:15:00,
2013-01-30 12:16:00,32.6,31.3,29.26,WNW,300,15.0,22.0,95,0.00,,,0.23,Wunderground v.1.15,2013-01-30 18:16:00,
2013-01-30 12:17:00,32.5,31.2,29.25,West,274,15.0,22.0,95,0.00,,,0.23,Wunderground v.1.15,2013-01-30 18:17:00,
2013-01-30 12:20:00,32.2,30.9,29.25,WNW,292,17.0,17.0,95,0.00,,,0.23,Wunderground v.1.15,2013-01-30 18:20:00,
2013-01-30 12:21:00,32.2,30.9,29.26,WNW,284,17.0,18.0,95,0.00,,,0.23,Wunderground v.1.15,2013-01-30 18:21:00,
2013-01-30 12:25:00,32.0,30.7,29.26,WNW,296,17.0,18.0,95,0.00,,,0.23,Wunderground v.1.15,2013-01-30 18:25:00,
2013-01-30 12:26:00,32.0,30.7,29.26,WNW,302,17.0,22.0,95,0.00,,,0.23,Wunderground v.1.15,2013-01-30 18:26:00,
2013-01-30 12:27:00,31.9,30.6,29.26,WNW,290,17.0,22.0,95,0.00,,,0.23,Wunderground v.1.15,2013-01-30 18:27:00,
2013-01-30 12:33:00,31.8,30.5,29.26,WNW,302,18.0,24.0,95,0.00,,,0.23,Wunderground v.1.15,2013-01-30 18:33:00,
2013-01-30 12:34:00,31.7,30.4,29.26,WNW,302,18.0,24.0,95,0.00,,,0.23,Wunderground v.1.15,2013-01-30 18:34:00,
2013-01-30 12:35:00,31.7,30.4,29.27,WNW,301,18.0,24.0,95,0.00,,,0.23,Wunderground v.1.15,2013-01-30 18:35:00,
2013-01-30 12:40:00,31.6,30.3,29.26,WNW,302,19.0,22.0,95,0.00,,,0.23,Wunderground v.1.15,2013-01-30 18:40:00,
2013-01-30 12:41:00,31.5,30.2,29.26,WNW,301,20.0,22.0,95,0.00,,,0.23,Wunderground v.1.15,2013-01-30 18:41:00,
2013-01-30 12:42:00,31.5,30.2,29.26,WNW,301,20.0,22.0,95,0.00,,,0.23,Wunderground v.1.15,2013-01-30 18:42:00,
2013-01-30 12:44:00,31.4,30.1,29.26,WNW,301,20.0,25.0,95,0.00,,,0.23,Wunderground v.1.15,2013-01-30 18:44:00,
2013-01-30 12:46:00,31.4,30.1,29.26,WNW,301,21.0,27.0,95,0.00,,,0.23,Wunderground v.1.15,2013-01-30 18:46:00,
2013-01-30 12:50:00,31.3,30.0,29.26,WNW,301,23.0,23.0,95,0.00,,,0.23,Wunderground v.1.15,2013-01-30 18:50:00,
2013-01-30 12:51:00,31.3,29.8,29.26,WNW,302,23.0,23.0,94,0.00,,,0.23,Wunderground v.1.15,2013-01-30 18:51:00,
2013-01-30 12:55:00,31.3,29.8,29.26,WNW,302,23.0,28.0,94,0.00,,,0.23,Wunderground v.1.15,2013-01-30 18:55:00,
2013-01-30 12:57:00,31.3,29.8,29.27,WNW,302,23.0,28.0,94,0.00,,,0.23,Wunderground v.1.15,2013-01-30 18:57:00,
2013-01-30 12:58:00,31.3,29.8,29.27,WNW,302,23.0,28.0,94,0.00,,,0.23,Wunderground v.1.15,2013-01-30 18:58:00,
2013-01-30 13:00:00,31.3,29.8,29.26,WNW,302,22.0,22.0,94,0.00,,,0.23,Wunderground v.1.15,2013-01-30 19:00:00,
2013-01-30 13:02:00,31.2,29.7,29.27,WNW,302,22.0,24.0,94,0.00,,,0.23,Wunderground v.1.15,2013-01-30 19:02:00,
2013-01-30 13:04:00,31.3,29.8,29.27,WNW,302,22.0,24.0,94,0.00,,,0.23,Wunderground v.1.15,2013-01-30 19:04:00,
2013-01-30 13:05:00,31.2,29.7,29.27,WNW,302,22.0,26.0,94,0.00,,,0.23,Wunderground v.1.15,2013-01-30 19:05:00,
2013-01-30 13:07:00,31.1,29.3,29.27,WNW,302,23.0,26.0,93,0.00,,,0.23,Wunderground v.1.15,2013-01-30 19:07:00,
2013-01-30 13:09:00,31.1,29.3,29.28,WNW,302,23.0,26.0,93,0.00,,,0.23,Wunderground v.1.15,2013-01-30 19:09:00,
2013-01-30 13:13:00,30.9,29.1,29.28,WNW,302,24.0,29.0,93,0.00,,,0.23,Wunderground v.1.15,2013-01-30 19:13:00,
2013-01-30 13:15:00,30.9,29.4,29.28,WNW,302,23.0,29.0,94,0.00,,,0.23,Wunderground v.1.15,2013-01-30 19:15:00,
2013-01-30 13:16:00,30.8,29.0,29.28,WNW,302,23.0,29.0,93,0.00,,,0.23,Wunderground v.1.15,2013-01-30 19:16:00,
2013-01-30 13:17:00,30.8,29.3,29.28,WNW,302,23.0,29.0,94,0.00,,,0.23,Wunderground v.1.15,2013-01-30 19:17:00,
2013-01-30 13:19:00,30.7,29.2,29.28,WNW,302,22.0,29.0,94,0.00,,,0.23,Wunderground v.1.15,2013-01-30 19:19:00,
2013-01-30 13:21:00,30.8,29.3,29.28,WNW,302,21.0,22.0,94,0.00,,,0.23,Wunderground v.1.15,2013-01-30 19:21:00,
2013-01-30 13:22:00,30.8,29.3,29.28,WNW,302,21.0,22.0,94,0.00,,,0.23,Wunderground v.1.15,2013-01-30 19:22:00,
2013-01-30 13:25:00,30.7,29.2,29.29,WNW,302,21.0,23.0,94,0.00,,,0.23,Wunderground v.1.15,2013-01-30 19:25:00,
2013-01-30 13:28:00,30.6,29.1,29.28,WNW,301,21.0,26.0,94,0.00,,,0.23,Wunderground v.1.15,2013-01-30 19:28:00,
2013-01-30 13:29:00,30.5,28.7,29.29,WNW,302,22.0,29.0,93,0.00,,,0.23,Wunderground v.1.15,2013-01-30 19:29:00,
2013-01-30 13:31:00,30.5,28.7,29.29,WNW,302,22.0,28.0,93,0.00,,,0.23,Wunderground v.1.15,2013-01-30 19:31:00,
2013-01-30 13:34:00,30.4,28.6,29.29,WNW,302,24.0,28.0,93,0.00,,,0.23,Wunderground v.1.15,2013-01-30 19:34:00,
2013-01-30 13:36:00,30.4,28.6,29.29,WNW,301,25.0,28.0,93,0.00,,,0.23,Wunderground v.1.15,2013-01-30 19:36:00,
2013-01-30 13:38:00,30.4,28.6,29.29,WNW,302,25.0,28.0,93,0.00,,,0.23,Wunderground v.1.15,2013-01-30 19:38:00,
2013-01-30 13:39:00,30.4,28.6,29.30,WNW,302,25.0,28.0,93,0.00,,,0.23,Wunderground v.1.15,2013-01-30 19:39:00,
2013-01-30 13:40:00,30.4,28.6,29.29,WNW,302,25.0,25.0,93,0.00,,,0.23,Wunderground v.1.15,2013-01-30 19:40:00,
2013-01-30 13:43:00,30.5,29.0,29.30,WNW,302,24.0,25.0,94,0.00,,,0.23,Wunderground v.1.15,2013-01-30 19:43:00,
2013-01-30 13:44:00,30.5,29.0,29.30,WNW,302,23.0,26.0,94,0.00,,,0.23,Wunderground v.1.15,2013-01-30 19:44:00,
2013-01-30 13:45:00,30.4,28.9,29.31,WNW,302,23.0,26.0,94,0.00,,,0.23,Wunderground v.1.15,2013-01-30 19:45:00,
2013-01-30 13:48:00,30.5,29.0,29.31,WNW,302,22.0,26.0,94,0.00,,,0.23,Wunderground v.1.15,2013-01-30 19:48:00,
2013-01-30 13:51:00,30.5,29.0,29.31,WNW,301,21.0,24.0,94,0.00,,,0.23,Wunderground v.1.15,2013-01-30 19:51:00,
2013-01-30 13:53:00,30.3,28.8,29.31,WNW,301,22.0,24.0,94,0.00,,,0.23,Wunderground v.1.15,2013-01-30 19:53:00,
2013-01-30 13:56:00,30.3,28.8,29.31,WNW,301,22.0,26.0,94,0.00,,,0.23,Wunderground v.1.15,2013-01-30 19:56:00,
2013-01-30 13:58:00,30.3,28.8,29.31,WNW,301,22.0,26.0,94,0.00,,,0.23,Wunderground v.1.15,2013-01-30 19:58:00,
2013-01-30 14:00:00,30.3,29.0,29.32,WNW,301,21.0,21.0,95,0.00,,,0.23,Wunderground v.1.15,2013-01-30 20:00:00,
2013-01-30 14:01:00,30.2,28.7,29.32,WNW,301,21.0,22.0,94,0.00,,,0.23,Wunderground v.1.15,2013-01-30 20:01:00,
2013-01-30 14:05:00,30.1,28.6,29.31,WNW,301,20.0,23.0,94,0.00,,,0.23,Wunderground v.1.15,2013-01-30 20:05:00,
2013-01-30 14:07:00,29.9,28.4,29.31,WNW,301,19.0,23.0,94,0.00,,,0.23,Wunderground v.1.15,2013-01-30 20:07:00,
2013-01-30 14:08:00,29.8,28.3,29.31,WNW,301,20.0,23.0,94,0.00,,,0.23,Wunderground v.1.15,2013-01-30 20:08:00,
2013-01-30 14:11:00,29.6,28.1,29.31,WNW,301,21.0,30.0,94,0.00,,,0.23,Wunderground v.1.15,2013-01-30 20:11:00,
2013-01-30 14:12:00,29.5,28.0,29.31,WNW,301,22.0,30.0,94,0.00,,,0.23,Wunderground v.1.15,2013-01-30 20:12:00,
2013-01-30 14:15:00,29.3,27.5,29.32,WNW,301,23.0,30.0,93,0.00,,,0.23,Wunderground v.1.15,2013-01-30 20:15:00,
2013-01-30 14:19:00,28.8,27.0,29.32,WNW,301,25.0,38.0,93,0.00,,,0.23,Wunderground v.1.15,2013-01-30 20:19:00,
2013-01-30 14:20:00,28.8,27.0,29.32,WNW,301,26.0,27.0,93,0.00,,,0.23,Wunderground v.1.15,2013-01-30 20:20:00,
2013-01-30 14:21:00,28.7,26.9,29.32,WNW,301,26.0,27.0,93,0.00,,,0.23,Wunderground v.1.15,2013-01-30 20:21:00,
2013-01-30 14:24:00,28.4,26.4,29.33,WNW,301,27.0,31.0,92,0.00,,,0.23,Wunderground v.1.15,2013-01-30 20:24:00,
2013-01-30 14:25:00,28.4,26.6,29.33,WNW,301,27.0,31.0,93,0.00,,,0.23,Wunderground v.1.15,2013-01-30 20:25:00,
2013-01-30 14:26:00,28.3,26.5,29.33,WNW,301,27.0,31.0,93,0.00,,,0.23,Wunderground v.1.15,2013-01-30 20:26:00,
2013-01-30 14:30:00,28.0,26.2,29.33,WNW,301,26.0,31.0,93,0.00,,,0.23,Wunderground v.1.15,2013-01-30 20:30:00,
2013-01-30 14:33:00,27.9,26.1,29.33,WNW,301,25.0,31.0,93,0.00,,,0.23,Wunderground v.1.15,2013-01-30 20:33:00,
2013-01-30 14:34:00,27.9,26.1,29.33,WNW,301,24.0,31.0,93,0.00,,,0.23,Wunderground v.1.15,2013-01-30 20:34:00,
2013-01-30 14:37:00,27.6,25.8,29.34,WNW,301,24.0,33.0,93,0.00,,,0.23,Wunderground v.1.15,2013-01-30 20:37:00,
2013-01-30 14:38:00,27.5,25.7,29.34,WNW,301,25.0,34.0,93,0.00,,,0.23,Wunderground v.1.15,2013-01-30 20:38:00,
2013-01-30 14:40:00,27.4,25.6,29.34,WNW,301,25.0,29.0,93,0.00,,,0.23,Wunderground v.1.15,2013-01-30 20:40:00,
2013-01-30 14:43:00,27.3,25.8,29.34,WNW,301,27.0,29.0,94,0.00,,,0.23,Wunderground v.1.15,2013-01-30 20:43:00,
2013-01-30 14:46:00,27.2,25.7,29.34,WNW,301,29.0,38.0,94,0.00,,,0.23,Wunderground v.1.15,2013-01-30 20:46:00,
2013-01-30 14:48:00,27.1,25.6,29.34,WNW,301,29.0,38.0,94,0.00,,,0.23,Wunderground v.1.15,2013-01-30 20:48:00,
2013-01-30 14:53:00,27.1,25.6,29.35,WNW,301,28.0,32.0,94,0.00,,,0.23,Wunderground v.1.15,2013-01-30 20:53:00,
2013-01-30 14:54:00,27.1,25.6,29.35,WNW,301,28.0,32.0,94,0.00,,,0.23,Wunderground v.1.15,2013-01-30 20:54:00,
2013-01-30 14:55:00,27.0,25.5,29.35,WNW,301,28.0,33.0,94,0.00,,,0.23,Wunderground v.1.15,2013-01-30 20:55:00,
2013-01-30 14:59:00,27.0,25.5,29.36,WNW,301,29.0,33.0,94,0.00,,,0.23,Wunderground v.1.15,2013-01-30 20:59:00,
2013-01-30 15:00:00,27.0,25.5,29.35,WNW,301,29.0,29.0,94,0.00,,,0.23,Wunderground v.1.15,2013-01-30 21:00:00,
2013-01-30 15:04:00,27.1,25.6,29.36,WNW,301,29.0,30.0,94,0.00,,,0.23,Wunderground v.1.15,2013-01-30 21:04:00,
2013-01-30 15:05:00,27.1,25.6,29.36,WNW,301,29.0,30.0,94,0.00,,,0.23,Wunderground v.1.15,2013-01-30 21:05:00,
2013-01-30 15:07:00,27.2,25.7,29.36,WNW,301,29.0,30.0,94,0.00,,,0.23,Wunderground v.1.15,2013-01-30 21:07:00,
2013-01-30 15:10:00,26.9,25.1,29.36,WNW,301,29.0,29.0,93,0.00,,,0.23,Wunderground v.1.15,2013-01-30 21:10:00,
2013-01-30 15:12:00,26.9,25.4,29.36,WNW,301,29.0,31.0,94,0.00,,,0.23,Wunderground v.1.15,2013-01-30 21:12:00,
2013-01-30 15:14:00,26.9,25.4,29.37,WNW,301,29.0,36.0,94,0.00,,,0.23,Wunderground v.1.15,2013-01-30 21:14:00,
2013-01-30 15:17:00,26.7,24.9,29.37,WNW,301,31.0,36.0,93,0.00,,,0.23,Wunderground v.1.15,2013-01-30 21:17:00,
2013-01-30 15:18:00,26.7,24.9,29.37,WNW,301,32.0,36.0,93,0.00,,,0.23,Wunderground v.1.15,2013-01-30 21:18:00,
2013-01-30 15:21:00,26.7,24.9,29.37,WNW,301,31.0,31.0,93,0.00,,,0.23,Wunderground v.1.15,2013-01-30 21:21:00,
2013-01-30 15:22:00,26.6,24.8,29.37,WNW,301,32.0,33.0,93,0.00,,,0.23,Wunderground v.1.15,2013-01-30 21:22:00,
2013-01-30 15:25:00,26.6,24.8,29.38,WNW,301,32.0,39.0,93,0.00,,,0.23,Wunderground v.1.15,2013-01-30 21:25:00,
2013-01-30 15:26:00,26.6,24.8,29.38,WNW,301,32.0,39.0,93,0.00,,,0.23,Wunderground v.1.15,2013-01-30 21:26:00,
2013-01-30 15:30:00,26.5,24.8,29.38,WNW,301,32.0,32.0,93,0.00,,,0.23,Wunderground v.1.15,2013-01-30 21:30:00,
2013-01-30 15:32:00,26.5,24.8,29.39,WNW,301,32.0,32.0,93,0.00,,,0.23,Wunderground v.1.15,2013-01-30 21:32:00,
2013-01-30 15:33:00,26.5,24.8,29.39,WNW,301,31.0,32.0,93,0.00,,,0.23,Wunderground v.1.15,2013-01-30 21:33:00,
2013-01-30 15:34:00,26.5,24.8,29.38,WNW,301,31.0,32.0,93,0.00,,,0.23,Wunderground v.1.15,2013-01-30 21:34:00,
2013-01-30 15:37:00,26.3,24.3,29.39,WNW,301,31.0,41.0,92,0.00,,,0.23,Wunderground v.1.15,2013-01-30 21:37:00,
2013-01-30 15:40:00,26.3,24.6,29.39,WNW,301,31.0,33.0,93,0.00,,,0.23,Wunderground v.1.15,2013-01-30 21:40:00,
2013-01-30 15:44:00,26.3,24.6,29.39,WNW,301,31.0,39.0,93,0.00,,,0.23,Wunderground v.1.15,2013-01-30 21:44:00,
2013-01-30 15:45:00,26.3,24.3,29.39,WNW,301,31.0,39.0,92,0.00,,,0.23,Wunderground v.1.15,2013-01-30 21:45:00,
2013-01-30 15:46:00,26.3,24.3,29.39,WNW,301,31.0,39.0,92,0.00,,,0.23,Wunderground v.1.15,2013-01-30 21:46:00,
2013-01-30 15:50:00,26.2,24.2,29.40,WNW,301,32.0,37.0,92,0.00,,,0.23,Wunderground v.1.15,2013-01-30 21:50:00,
2013-01-30 15:51:00,26.2,24.2,29.39,WNW,301,32.0,37.0,92,0.00,,,0.23,Wunderground v.1.15,2013-01-30 21:51:00,
2013-01-30 15:53:00,26.2,24.2,29.40,WNW,301,33.0,37.0,92,0.00,,,0.23,Wunderground v.1.15,2013-01-30 21:53:00,
2013-01-30 15:54:00,26.2,24.2,29.41,WNW,301,33.0,37.0,92,0.00,,,0.23,Wunderground v.1.15,2013-01-30 21:54:00,
2013-01-30 15:58:00,26.3,24.3,29.41,WNW,301,31.0,37.0,92,0.00,,,0.23,Wunderground v.1.15,2013-01-30 21:58:00,